User: anonymous   Login
Location: Unspecified
(0.0000°N, 0.0000°E)
Time: 01:01:40
(UTC+00:00)
Language:

Interbol-2 - Orbit

View from above orbital plane
View from above orbital plane
View from above satellite
View from above satellite

Ground track
Ground track

The orbit data is extracted from the following two-line orbital elements,

1 24292U 96050B   18172.26883196 -.00000046 +00000-0 +00000-0 0  9992
2 24292 063.5015 091.9076 5297560 236.9335 340.5792 04.14704143330338
Epoch (UTC): 21 June 2018 06:27:07
Eccentricity: 0.5297560
inclination: 63.5015°
perigee height: 1317 km
apogee height: 18656 km
right ascension of ascending node: 91.9076°
argument of perigee: 236.9335°
revolutions per day: 4.14704143
mean anomaly at epoch: 340.5792°
orbit number at epoch: 33033

The dashed part of the orbit path shows where the satellite is in the earth's shadow,  

DLR